Location: Newark
(42.0333°N, 13.0667°E)
Time: 18:29:00
(UTC+00:00)

ISS - Visible Passes

Search period start: 19 November 2019 00:00
Search period end: 29 November 2019 00:00
Orbit: 412 x 421 km, 51.6° (Epoch: 19 November)

Date Brightness Start Highest point End Pass type
(mag) Time Alt. Az. Time Alt. Az. Time Alt. Az.
20 Nov -1.9 17:27:34 10° S 17:29:13 20° SSE 17:29:13 20° SSE visible
21 Nov -1.7 16:40:17 10° SSE 16:42:08 14° SE 16:43:10 13° ESE visible
21 Nov -1.0 18:15:08 10° WSW 18:16:06 18° WSW 18:16:06 18° WSW visible
22 Nov -3.7 17:26:47 10° SW 17:29:57 66° SSE 17:29:57 66° SSE visible
23 Nov -3.0 16:38:38 10° SSW 16:41:46 38° SE 16:43:44 19° E visible
23 Nov -0.9 18:15:28 10° W 18:16:38 18° WNW 18:16:38 18° WNW visible
24 Nov -3.2 17:26:46 10° WSW 17:30:02 47° NNW 17:30:19 46° N visible
25 Nov -3.7 16:38:13 10° WSW 16:41:33 77° NW 16:43:56 18° NE visible
25 Nov -0.7 18:16:07 10° WNW 18:16:51 14° NW 18:16:51 14° NW visible
26 Nov -2.1 17:27:15 10° WNW 17:30:06 25° NNW 17:30:24 25° N visible
27 Nov -2.6 16:38:25 10° W 16:41:31 34° NNW 16:43:54 15° NE visible
27 Nov -0.5 18:16:46 10° NW 18:16:48 10° NW 18:16:48 10° NW visible
28 Nov -1.6 17:27:54 10° NW 17:30:16 18° N 17:30:16 18° N visible
